| time (UTC) | temp F | wind direction | speed MPH | gust MPH | rain 1hr in | rain 24hr in | rain mn in | humidity % | barometer mb |
| 20260503024934 | 70 | 341 | 1.0 | 3.0 | 0.00 | 0.00 | 0.00 | 55 | 1000.2 |
| 20260503024431 | 70 | 5 | 1.0 | 4.0 | 0.00 | 0.00 | 0.00 | 53 | 1000.2 |
| 20260503023932 | 71 | 17 | 2.0 | 5.0 | 0.00 | 0.00 | 0.00 | 51 | 1000.2 |
| 20260503022947 | 71 | 21 | 0.0 | 11.0 | 0.00 | 0.00 | 0.00 | 50 | 1000.2 |
| 20260503022441 | 71 | 44 | 2.0 | 11.0 | 0.00 | 0.00 | 0.00 | 51 | 1000.2 |
| 20260503021936 | 71 | 281 | 2.0 | 6.0 | 0.00 | 0.00 | 0.00 | 51 | 1000.2 |
| 20260503021427 | 71 | 316 | 3.0 | 5.0 | 0.00 | 0.00 | 0.00 | 51 | 1000.2 |
| 20260503020427 | 72 | 261 | 4.0 | 9.0 | 0.00 | 0.00 | 0.00 | 51 | 1000.2 |
| 20260503015923 | 72 | 344 | 3.0 | 9.0 | 0.00 | 0.00 | 0.00 | 51 | 1000.2 |
| 20260503014939 | 72 | 285 | 6.0 | 10.0 | 0.00 | 0.00 | 0.00 | 52 | 1000.2 |
| 20260503014434 | 72 | 49 | 0.0 | 10.0 | 0.00 | 0.00 | 0.00 | 52 | 1000.2 |
| 20260503013927 | 73 | 242 | 2.0 | 10.0 | 0.00 | 0.00 | 0.00 | 53 | 1000.2 |
| 20260503012941 | 73 | 338 | 6.0 | 13.0 | 0.00 | 0.00 | 0.00 | 54 | 1000.2 |
| 20260503011935 | 73 | 11 | 8.0 | 13.0 | 0.00 | 0.00 | 0.00 | 54 | 1000.2 |
| 20260503011433 | 73 | 285 | 5.0 | 11.0 | 0.00 | 0.00 | 0.00 | 56 | 1000.2 |
| 20260503010922 | 73 | 308 | 3.0 | 11.0 | 0.00 | 0.00 | 0.00 | 57 | 1000.2 |
| 20260503005949 | 73 | 270 | 5.0 | 10.0 | 0.00 | 0.00 | 0.00 | 57 | 1000.2 |
| 20260503005443 | 73 | 287 | 6.0 | 11.0 | 0.00 | 0.00 | 0.00 | 57 | 1000.2 |
| 20260503004938 | 72 | 309 | 6.0 | 10.0 | 0.00 | 0.00 | 0.00 | 58 | 1000.2 |
| 20260503004434 | 72 | 285 | 6.0 | 14.0 | 0.00 | 0.00 | 0.00 | 58 | 1000.2 |
| 20260503003436 | 73 | 277 | 6.0 | 15.0 | 0.00 | 0.00 | 0.00 | 58 | 1000.2 |
| 20260503002934 | 73 | 304 | 8.0 | 15.0 | 0.00 | 0.00 | 0.00 | 57 | 1000.2 |
| 20260503001930 | 73 | 287 | 8.0 | 12.0 | 0.00 | 0.00 | 0.00 | 57 | 1000.2 |
| 20260503000935 | 73 | 302 | 5.0 | 10.0 | 0.00 | 0.00 | 0.00 | 57 | 1000.2 |
| 20260502235940 | 73 | 289 | 4.0 | 12.0 | 0.00 | 0.00 | 0.00 | 57 | 1000.2 |
| 20260502234940 | 73 | 278 | 6.0 | 13.0 | 0.00 | 0.00 | 0.00 | 57 | 1000.2 |
| 20260502234424 | 73 | 282 | 5.0 | 12.0 | 0.00 | 0.00 | 0.00 | 56 | 1000.2 |
| 20260502233916 | 73 | 310 | 8.0 | 12.0 | 0.00 | 0.00 | 0.00 | 57 | 1000.2 |
| 20260502232925 | 73 | 294 | 6.0 | 12.0 | 0.00 | 0.00 | 0.00 | 58 | 1000.2 |
| 20260502231938 | 72 | 265 | 5.0 | 11.0 | 0.00 | 0.00 | 0.00 | 57 | 1000.2 |
| 20260502231431 | 73 | 286 | 7.0 | 12.0 | 0.00 | 0.00 | 0.00 | 57 | 1000.2 |
| 20260502230439 | 72 | 260 | 7.0 | 13.0 | 0.00 | 0.00 | 0.00 | 58 | 1000.2 |
| 20260502225936 | 73 | 252 | 9.0 | 13.0 | 0.00 | 0.00 | 0.00 | 57 | 1000.2 |
| 20260502225433 | 72 | 318 | 3.0 | 9.0 | 0.00 | 0.00 | 0.00 | 57 | 1000.2 |
| 20260502224925 | 73 | 225 | 3.0 | 15.0 | 0.00 | 0.00 | 0.00 | 56 | 1000.2 |
| 20260502223933 | 72 | 295 | 4.0 | 12.0 | 0.00 | 0.00 | 0.00 | 56 | 1000.2 |
| 20260502222942 | 72 | 266 | 7.0 | 15.0 | 0.00 | 0.00 | 0.00 | 57 | 1000.2 |
| 20260502222425 | 72 | 273 | 6.0 | 13.0 | 0.00 | 0.00 | 0.00 | 57 | 1000.2 |
| 20260502221432 | 72 | 316 | 7.0 | 12.0 | 0.00 | 0.00 | 0.00 | 58 | 1000.2 |
| 20260502220429 | 72 | 273 | 6.0 | 13.0 | 0.00 | 0.00 | 0.00 | 58 | 1000.2 |
| 20260502215923 | 72 | 292 | 7.0 | 13.0 | 0.00 | 0.00 | 0.00 | 58 | 1000.2 |
| 20260502214933 | 71 | 276 | 8.0 | 12.0 | 0.00 | 0.00 | 0.00 | 59 | 1000.2 |
| 20260502214432 | 71 | 273 | 7.0 | 13.0 | 0.00 | 0.00 | 0.00 | 59 | 1000.2 |
| 20260502213928 | 72 | 288 | 5.0 | 13.0 | 0.00 | 0.00 | 0.00 | 59 | 1000.2 |
| 20260502212945 | 72 | 283 | 7.0 | 15.0 | 0.00 | 0.00 | 0.00 | 59 | 1000.2 |
| 20260502211938 | 71 | 335 | 3.0 | 9.0 | 0.00 | 0.00 | 0.00 | 61 | 1000.2 |
| 20260502210939 | 71 | 360 | 6.0 | 14.0 | 0.00 | 0.00 | 0.00 | 59 | 1000.2 |
| 20260502205940 | 70 | 345 | 6.0 | 13.0 | 0.00 | 0.00 | 0.00 | 60 | 1000.2 |
| 20260502205425 | 70 | 5 | 6.0 | 11.0 | 0.00 | 0.00 | 0.00 | 62 | 1000.2 |
| 20260502204438 | 68 | 9 | 7.0 | 14.0 | 0.00 | 0.00 | 0.00 | 66 | 1000.2 |
| 20260502203928 | 69 | 348 | 8.0 | 14.0 | 0.00 | 0.00 | 0.00 | 67 | 1000.2 |
| 20260502202938 | 69 | 350 | 5.0 | 16.0 | 0.00 | 0.00 | 0.00 | 67 | 1000.2 |
| 20260502202425 | 68 | 286 | 6.0 | 13.0 | 0.00 | 0.00 | 0.00 | 68 | 1000.2 |
| 20260502201429 | 68 | 11 | 6.0 | 12.0 | 0.00 | 0.00 | 0.00 | 68 | 1000.2 |
| 20260502200450 | 67 | 329 | 3.0 | 11.0 | 0.00 | 0.00 | 0.00 | 69 | 1000.2 |
| 20260502195438 | 67 | 303 | 5.0 | 12.0 | 0.00 | 0.00 | 0.00 | 68 | 1000.2 |
| 20260502194931 | 67 | 338 | 5.0 | 12.0 | 0.00 | 0.00 | 0.00 | 67 | 1000.2 |
| 20260502194425 | 67 | 344 | 4.0 | 12.0 | 0.00 | 0.00 | 0.00 | 69 | 1000.2 |
| 20260502193921 | 67 | 312 | 5.0 | 11.0 | 0.00 | 0.00 | 0.00 | 68 | 1000.2 |
| 20260502192943 | 66 | 315 | 2.0 | 14.0 | 0.00 | 0.00 | 0.00 | 70 | 1000.2 |
| 20260502192438 | 66 | 319 | 7.0 | 14.0 | 0.00 | 0.00 | 0.00 | 68 | 1000.2 |
| 20260502191938 | 66 | 320 | 6.0 | 13.0 | 0.00 | 0.00 | 0.00 | 70 | 1000.2 |
| 20260502191432 | 65 | 278 | 4.0 | 11.0 | 0.00 | 0.00 | 0.00 | 69 | 1000.2 |
| 20260502185940 | 64 | 316 | 8.0 | 18.0 | 0.00 | 0.00 | 0.00 | 71 | 1000.2 |
| 20260502185431 | 64 | 328 | 9.0 | 18.0 | 0.00 | 0.00 | 0.00 | 70 | 1000.2 |
| 20260502184924 | 64 | 355 | 10.0 | 18.0 | 0.00 | 0.00 | 0.00 | 70 | 1000.2 |
| 20260502184421 | 65 | 32 | 8.0 | 15.0 | 0.00 | 0.00 | 0.00 | 70 | 1000.2 |
| 20260502183432 | 64 | 290 | 7.0 | 16.0 | 0.00 | 0.00 | 0.00 | 73 | 1000.2 |
| 20260502182434 | 63 | 287 | 9.0 | 12.0 | 0.00 | 0.00 | 0.00 | 74 | 1000.2 |
| 20260502181924 | 63 | 317 | 5.0 | 10.0 | 0.00 | 0.00 | 0.00 | 75 | 1000.2 |
| 20260502181421 | 63 | 295 | 1.0 | 11.0 | 0.00 | 0.00 | 0.00 | 76 | 1000.2 |
| 20260502180440 | 62 | 280 | 4.0 | 8.0 | 0.00 | 0.00 | 0.00 | 77 | 1000.2 |
| 20260502170428 | 59 | 43 | 5.0 | 10.0 | 0.00 | 0.00 | 0.00 | 80 | 1000.2 |
| 20260502163440 | 57 | 38 | 0.0 | 5.0 | 0.00 | 0.00 | 0.00 | 82 | 1000.2 |
| 20260502162440 | 57 | 327 | 3.0 | 5.0 | 0.00 | 0.00 | 0.00 | 84 | 1000.2 |
| 20260502161934 | 56 | 303 | 0.0 | 2.0 | 0.00 | 0.00 | 0.00 | 84 | 1000.2 |
| 20260502160937 | 56 | 266 | 2.0 | 4.0 | 0.00 | 0.00 | 0.00 | 84 | 1000.2 |
| 20260502151741 | 52 | 11 | 0.0 | 1.0 | 0.00 | 0.00 | 0.00 | 92 | 1000.2 |
| 20260502130428 | 51 | 5 | 0.0 | 2.0 | 0.00 | 0.00 | 0.00 | 93 | 1000.2 |
| 20260502122942 | 51 | 323 | 0.0 | 2.0 | 0.00 | 0.00 | 0.00 | 93 | 1000.2 |
| 20260502122434 | 51 | 323 | 0.0 | 2.0 | 0.00 | 0.00 | 0.00 | 93 | 1000.2 |
| 20260502121726 | 52 | 251 | 2.0 | 4.0 | 0.00 | 0.00 | 0.00 | 94 | 1000.2 |
| 20260502111933 | 51 | 259 | 1.0 | 4.0 | 0.00 | 0.00 | 0.00 | 94 | 1000.2 |
| 20260502111430 | 51 | 360 | 0.0 | 0.0 | 0.00 | 0.00 | 0.00 | 94 | 1000.2 |
| 20260502110930 | 51 | 360 | 0.0 | 0.0 | 0.00 | 0.00 | 0.00 | 93 | 1000.2 |
| 20260502110423 | 51 | 360 | 0.0 | 0.0 | 0.00 | 0.00 | 0.00 | 93 | 1000.2 |
| 20260502105922 | 51 | 360 | 0.0 | 0.0 | 0.00 | 0.00 | 0.00 | 93 | 1000.2 |
| 20260502104931 | 51 | 360 | 0.0 | 2.0 | 0.00 | 0.00 | 0.00 | 93 | 1000.2 |
| 20260502104428 | 51 | 360 | 0.0 | 2.0 | 0.00 | 0.00 | 0.00 | 93 | 1000.2 |
| 20260502103926 | 51 | 360 | 0.0 | 2.0 | 0.00 | 0.00 | 0.00 | 92 | 1000.2 |
| 20260502102939 | 51 | 360 | 0.0 | 2.0 | 0.00 | 0.00 | 0.00 | 92 | 1000.2 |
| 20260502101933 | 51 | 360 | 0.0 | 2.0 | 0.00 | 0.00 | 0.00 | 92 | 1000.2 |
| 20260502101428 | 51 | 360 | 0.0 | 2.0 | 0.00 | 0.00 | 0.00 | 92 | 1000.2 |
| 20260502100927 | 52 | 360 | 0.0 | 2.0 | 0.00 | 0.00 | 0.00 | 92 | 1000.2 |
| 20260502100421 | 52 | 360 | 0.0 | 1.0 | 0.00 | 0.00 | 0.00 | 92 | 1000.2 |
| 20260502091348 | 53 | 321 | 2.0 | 5.0 | 0.00 | 0.00 | 0.00 | 89 | 1000.2 |
| 20260502070928 | 56 | 61 | 1.0 | 3.0 | 0.00 | 0.00 | 0.00 | 75 | 1000.2 |
| 20260502065946 | 57 | 61 | 0.0 | 2.0 | 0.00 | 0.00 | 0.00 | 73 | 1000.2 |
| 20260502065427 | 57 | 61 | 0.0 | 3.0 | 0.00 | 0.00 | 0.00 | 72 | 1000.2 |
| 20260502064441 | 58 | 61 | 0.0 | 2.0 | 0.00 | 0.00 | 0.00 | 71 | 1000.2 |
| 20260502063432 | 58 | 61 | 2.0 | 3.0 | 0.00 | 0.00 | 0.00 | 72 | 1000.2 |
| 20260502062435 | 58 | 53 | 2.0 | 3.0 | 0.00 | 0.00 | 0.00 | 71 | 1000.2 |
| 20260502061928 | 58 | 53 | 0.0 | 3.0 | 0.00 | 0.00 | 0.00 | 72 | 1000.2 |
| 20260502061427 | 58 | 51 | 0.0 | 3.0 | 0.00 | 0.00 | 0.00 | 70 | 1000.2 |
| 20260502060427 | 58 | 38 | 1.0 | 3.0 | 0.00 | 0.00 | 0.00 | 68 | 1000.2 |
| 20260502055923 | 58 | 335 | 0.0 | 2.0 | 0.00 | 0.00 | 0.00 | 69 | 1000.2 |
| 20260502055423 | 59 | 335 | 0.0 | 2.0 | 0.00 | 0.00 | 0.00 | 67 | 1000.2 |
| 20260502054922 | 58 | 335 | 0.0 | 4.0 | 0.00 | 0.00 | 0.00 | 68 | 1000.2 |
| 20260502053443 | 58 | 43 | 0.0 | 1.0 | 0.00 | 0.00 | 0.00 | 69 | 1000.2 |
| 20260502052930 | 59 | 43 | 0.0 | 6.0 | 0.00 | 0.00 | 0.00 | 68 | 1000.2 |
| 20260502052427 | 59 | 43 | 2.0 | 6.0 | 0.00 | 0.00 | 0.00 | 67 | 1000.2 |
| 20260502051431 | 59 | 28 | 1.0 | 8.0 | 0.00 | 0.00 | 0.00 | 68 | 1000.2 |
| 20260502050439 | 59 | 38 | 3.0 | 6.0 | 0.00 | 0.00 | 0.00 | 67 | 1000.2 |
| 20260502045726 | 60 | 33 | 3.0 | 9.0 | 0.00 | 0.00 | 0.00 | 67 | 1000.2 |
| 20260502044419 | 60 | 49 | 2.0 | 9.0 | 0.00 | 0.00 | 0.00 | 68 | 1000.2 |
| 20260502043442 | 61 | 9 | 3.0 | 10.0 | 0.00 | 0.00 | 0.00 | 66 | 1000.2 |
| 20260502042935 | 62 | 44 | 5.0 | 10.0 | 0.00 | 0.00 | 0.00 | 65 | 1000.2 |
| 20260502042420 | 62 | 40 | 4.0 | 6.0 | 0.00 | 0.00 | 0.00 | 65 | 1000.2 |
| 20260502041439 | 63 | 28 | 3.0 | 5.0 | 0.00 | 0.00 | 0.00 | 62 | 1000.2 |
| 20260502040438 | 63 | 360 | 1.0 | 5.0 | 0.00 | 0.00 | 0.00 | 61 | 1000.2 |
| 20260502035931 | 63 | 32 | 3.0 | 5.0 | 0.00 | 0.00 | 0.00 | 60 | 1000.2 |
| 20260502034938 | 63 | 30 | 1.0 | 3.0 | 0.00 | 0.00 | 0.00 | 61 | 1000.2 |
| 20260502033928 | 64 | 351 | 1.0 | 3.0 | 0.00 | 0.00 | 0.00 | 64 | 1000.2 |
| 20260502032953 | 64 | 351 | 2.0 | 4.0 | 0.00 | 0.00 | 0.00 | 61 | 1000.2 |
| 20260502032445 | 64 | 323 | 0.0 | 4.0 | 0.00 | 0.00 | 0.00 | 64 | 1000.2 |
| 20260502031438 | 64 | 59 | 0.0 | 4.0 | 0.00 | 0.00 | 0.00 | 63 | 1000.2 |
| 20260502030930 | 64 | 79 | 1.0 | 5.0 | 0.00 | 0.00 | 0.00 | 62 | 1000.2 |
| 20260502030427 | 64 | 328 | 1.0 | 9.0 | 0.00 | 0.00 | 0.00 | 64 | 1000.2 |
| 20260502025431 | 64 | 301 | 2.0 | 5.0 | 0.00 | 0.00 | 0.00 | 66 | 1000.2 |